Weather History for Bangor, ME

Change the Weather History Date:

Saturday, September 14, 2013

  Actual Average Record
Temperature  
Mean Temperature 61 °F 60 °F  
Max Temperature 70 °F 71 °F 97 °F (1948)
Min Temperature 52 °F 49 °F 30 °F (1946)
Degree Days  
Heating Degree Days 4 6  
Month to date heating degree days 58 62  
Since 1 July heating degree days 90 125  
Cooling Degree Days 0 1  
Month to date cooling degree days 33 18  
Year to date cooling degree days 355 312  
Growing Degree Days 12 (Base 50)    
Moisture  
Dew Point 54 °F    
Average Humidity 78    
Maximum Humidity 93    
Minimum Humidity 63    
Precipitation  
Precipitation 0.00 in 0.14 in 1.50 in (1977)
Month to date precipitation 6.66 1.58  
Year to date precipitation 31.84 27.83  
Snow  
Snow 0.00 in 0.00 in 0.00 in (2002)
Month to date snowfall 0.0 0.0  
Since 1 July snowfall 0.0 0.0  
Since 1 September snowfall 0.0 0.0  
Snow Depth 0.00 in    
Sea Level Pressure  
Sea Level Pressure 29.82 in    
Wind  
Wind Speed 6 mph (NW)    
Max Wind Speed 15 mph    
Max Gust Speed 18 mph    
Visibility 10 miles    
Events      
T = Trace of Precipitation, MM = Missing Value Source: NWS Daily Summary

Daily Weather History Graph

Daily Weather History Graph

Search for Another Location

Airport:

Trip Planner

Search our weather history database for the weather conditions in past years. The results will help you decide how hot, cold, wet, or windy it might be!

Date:

Astronomy

Sep. 14, 2013 Rise Set
Actual Time 6:13 AM EDT 6:47 PM EDT
Civil Twilight 5:43 AM EDT 7:16 PM EDT
Nautical Twilight 5:08 AM EDT 7:51 PM EDT
Astronomical Twilight 4:32 AM EDT 8:27 PM EDT
Moon 3:35 PM EDT (9/14) 12:30 AM EDT (9/14)
Length of Visible Light 13h 33m
Length of Day
12h 34m
Waxing Gibbous, 72% of the Moon is Illuminated
Sep 14
Waxing Gibbous
Sep 19
Full
Sep 26
Last Quarter
Oct 4
New
Oct 11
First Quarter

Hourly Weather History & Observations

Time (EDT) Temp. Dew Point Humidity Pressure Visibility Wind Dir Wind Speed Gust Speed Precip Events Conditions
12:30 AM 59.0 °F 55.4 °F 88% 29.69 in 10.0 mi NNW 6.9 mph - N/A   Mostly Cloudy
12:53 AM 59.0 °F 55.9 °F 90% 29.69 in 10.0 mi NNW 6.9 mph - N/A   Mostly Cloudy
1:53 AM 59.0 °F 55.9 °F 90% 29.70 in 10.0 mi NW 9.2 mph - N/A   Mostly Cloudy
2:00 AM 59.0 °F 55.4 °F 88% 29.71 in 10.0 mi NW 6.9 mph - N/A   Overcast
2:53 AM 59.0 °F 55.9 °F 90% 29.73 in 10.0 mi NW 6.9 mph - N/A   Overcast
3:53 AM 59.0 °F 55.0 °F 87% 29.75 in 10.0 mi NNW 6.9 mph - N/A   Overcast
4:53 AM 57.0 °F 54.0 °F 89% 29.75 in 10.0 mi NW 5.8 mph - N/A   Mostly Cloudy
5:46 AM 55.4 °F 53.6 °F 94% 29.76 in 10.0 mi NNW 3.5 mph - N/A   Mostly Cloudy
5:53 AM 55.9 °F 54.0 °F 93% 29.75 in 10.0 mi Calm Calm - N/A   Mostly Cloudy
6:53 AM 55.0 °F 54.0 °F 96% 29.76 in 10.0 mi Calm Calm - N/A   Overcast
7:53 AM 59.0 °F 55.9 °F 90% 29.78 in 10.0 mi West 4.6 mph - N/A   Overcast
8:53 AM 62.1 °F 55.9 °F 80% 29.81 in 10.0 mi NW 5.8 mph - N/A   Overcast
9:12 AM 62.6 °F 55.4 °F 77% 29.82 in 10.0 mi North 5.8 mph - N/A   Overcast
9:53 AM 62.1 °F 55.0 °F 78% 29.82 in 10.0 mi NNW 3.5 mph - N/A   Overcast
10:53 AM 63.0 °F 55.9 °F 78% 29.82 in 10.0 mi Calm Calm - N/A   Overcast
11:12 AM 62.6 °F 55.4 °F 77% 29.83 in 10.0 mi WNW 3.5 mph - N/A   Overcast
11:53 AM 64.9 °F 55.9 °F 73% 29.83 in 10.0 mi West 5.8 mph - N/A   Overcast
12:53 PM 66.9 °F 55.0 °F 66% 29.83 in 10.0 mi NW 5.8 mph - N/A   Mostly Cloudy
1:53 PM 66.9 °F 54.0 °F 63% 29.83 in 10.0 mi NNW 10.4 mph - N/A   Mostly Cloudy
2:53 PM 66.0 °F 55.0 °F 68% 29.85 in 10.0 mi WNW 5.8 mph - N/A   Overcast
3:53 PM 68.0 °F 55.0 °F 63% 29.84 in 10.0 mi NNW 8.1 mph - N/A   Overcast
4:53 PM 66.0 °F 53.1 °F 63% 29.87 in 10.0 mi NW 6.9 mph - N/A   Mostly Cloudy
5:53 PM 64.0 °F 54.0 °F 70% 29.89 in 10.0 mi NW 11.5 mph - N/A   Overcast
6:53 PM 62.1 °F 53.1 °F 72% 29.92 in 10.0 mi NNW 9.2 mph - N/A   Overcast
7:53 PM 60.1 °F 53.1 °F 78% 29.95 in 10.0 mi WNW 4.6 mph - N/A   Overcast
8:53 PM 59.0 °F 52.0 °F 78% 29.97 in 10.0 mi WNW 5.8 mph - N/A   Mostly Cloudy
9:53 PM 57.0 °F 51.1 °F 81% 29.98 in 10.0 mi WNW 6.9 mph - N/A   Partly Cloudy
10:53 PM 55.0 °F 50.0 °F 83% 29.99 in 10.0 mi NW 8.1 mph - N/A   Partly Cloudy
11:53 PM 54.0 °F 50.0 °F 86% 29.99 in 10.0 mi WNW 5.8 mph - N/A   Clear